Dewpoint
19 20 19 20 20 21 20 20 20 19 19 19 19 18 17 16 17 21 26 33 38 44 52 57 61 65 65 65 66 67 66 65 66 67 66 65 64 65 65 64 61 62 63
18 19 19 19 19 21 21 21 20 19 19 19 19 19 18 17 17 19 23 25 30 37 44 51 57 61 64 64 65 66 66 66 65 67 66 65 64 64 64 64 62 61 62
17 18 19 19 19 20 20 20 20 20 20 19 19 19 18 18 18 19 21 22 25 29 37 46 52 58 62 64 63 65 66 66 65 66 66 65 64 64 63 64 63 62 62
17 17 18 18 19 20 20 20 19 20 19 19 19 19 19 18 18 20 21 20 21 23 27 36 45 53 59 63 64 63 66 67 66 65 66 66 65 64 63 63 63 63 63
17 16 17 18 19 19 19 19 19 19 19 19 18 18 19 19 21 22 22 21 21 22 24 27 38 43 49 57 63 63 64 66 67 66 66 66 65 64 63 64 63 63 63
15 15 17 17 18 18 18 18 17 18 19 20 17 18 20 22 19 19 20 20 20 21 23 30 37 42 46 51 60 64 63 65 67 66 66 66 66 65 63 64 63 63 64
14 15 16 17 17 17 17 17 18 18 18 19 19 18 18 19 20 22 24 26 24 24 26 26 33 43 45 48 56 63 64 64 66 67 66 65 66 65 64 64 63 63 63
14 14 15 16 17 17 18 17 17 17 18 19 17 17 16 15 20 19 20 20 22 24 25 37 40 41 45 46 53 60 63 64 65 66 66 66 65 66 65 64 63 64 63
14 15 16 16 17 17 18 18 18 17 17 18 17 17 16 16 17 18 18 19 20 21 22 30 35 35 38 39 46 47 55 62 64 65 66 66 66 65 65 64 63 63 63
14 14 16 16 17 18 18 18 17 18 18 17 18 16 17 17 16 16 18 18 19 21 27 28 28 34 32 39 39 46 49 52 54 64 65 66 66 65 65 65 64 63 63
14 15 16 16 16 17 18 17 17 17 18 18 18 18 17 17 17 17 16 18 19 20 22 23 25 25 31 34 43 45 45 49 50 56 63 66 66 66 65 66 64 63 62
14 15 15 16 16 17 17 17 17 17 17 17 18 17 17 16 16 17 17 17 18 19 19 21 23 26 27 37 44 43 42 44 47 51 63 64 65 66 66 66 65 64 62
14 14 15 15 16 16 17 17 17 17 17 17 17 17 17 17 18 17 17 17 17 18 19 20 21 25 27 38 40 39 39 40 42 46 50 61 64 65 65 64 65 65 63
15 15 15 16 16 16 17 17 17 17 18 18 17 17 17 17 18 18 18 18 17 18 18 18 21 22 25 34 32 33 36 37 39 42 45 49 53 63 64 63 64 65 64
16 15 16 16 16 16 17 17 17 17 18 17 17 18 18 18 18 18 18 19 18 17 16 16 19 22 24 27 29 30 36 35 38 39 42 45 46 50 62 63 63 63 64
17 17 17 17 18 18 18 18 18 18 19 19 18 18 18 18 18 18 18 19 19 20 18 18 19 21 25 27 27 28 31 34 36 38 40 44 43 48 51 62 63 63 63
19 19 19 19 19 19 19 19 18 18 19 19 19 18 18 18 18 18 19 19 19 19 19 19 19 22 22 23 25 27 32 35 35 37 39 40 45 45 47 53 61 62 62
19 20 20 20 20 20 20 19 19 19 19 19 19 19 19 19 18 18 18 18 18 18 19 18 17 17 19 24 26 26 30 33 34 36 37 41 42 43 45 47 52 61 61
18 19 20 20 20 20 20 21 21 21 20 20 20 20 20 19 19 19 19 20 19 18 18 19 19 21 21 22 24 26 27 33 36 37 39 40 40 43 44 47 50 60 60
20 19 21 22 20 20 21 21 21 21 21 21 21 21 20 20 20 20 19 18 18 18 18 18 18 18 20 22 25 25 27 33 35 34 37 39 43 42 41 46 51 57 58
18 20 20 20 21 22 23 24 25 24 23 23 22 22 23 22 22 21 20 19 18 18 18 17 17 17 19 20 21 24 28 30 34 35 36 40 40 39 40 42 50 55 57
18 20 21 20 21 23 24 23 24 26 30 29 29 27 24 23 24 26 23 24 27 19 18 17 18 18 19 21 22 23 28 31 28 36 34 34 37 38 39 42 45 46 56
18 19 19 21 22 22 24 23 26 27 29 30 28 28 27 25 23 22 21 21 21 27 28 25 19 17 17 19 21 23 27 27 28 34 34 30 34 35 40 41 43 44 45
18 20 21 20 21 23 22 23 25 29 29 27 28 28 29 28 24 22 23 23 21 20 19 19 22 26 28 26 22 22 25 28 32 30 33 28 32 34 38 40 41 44 46
19 21 21 20 20 20 23 24 24 28 28 27 26 26 27 30 29 28 29 26 24 23 22 21 21 21 21 21 22 26 26 26 25 25 28 31 33 34 36 39 43 44 45
21 20 18 19 20 21 22 21 23 29 27 25 26 24 25 28 29 33 30 29 26 25 23 22 21 21 21 23 27 27 29 27 25 25 29 32 32 35 33 38 40 39 41
Wind_Speed
12 11 10 9 11 12 14 15 14 15 15 17 18 17 17 17 17 14 15 20 24 23 22 25 26 22 21 21 25 28 27 21 20 20 22 22 20 21 19 19 19 18 15
9 12 13 14 13 12 12 12 14 14 13 15 16 18 18 18 18 16 15 17 23 24 24 24 24 26 24 24 25 26 26 24 23 23 24 24 24 22 22 21 21 22 21
8 8 10 9 9 11 13 14 13 11 13 15 16 16 17 18 18 18 17 17 19 22 24 24 25 26 26 27 27 27 28 27 27 25 26 26 26 25 24 23 23 24 23
8 8 9 9 10 9 9 10 12 11 14 15 16 17 16 17 18 19 19 19 18 18 20 23 25 25 25 27 30 29 28 28 28 28 27 29 28 27 26 25 24 23 24
8 8 9 11 12 10 10 10 11 12 13 12 16 17 18 19 18 18 20 20 20 21 20 21 24 27 28 28 29 32 29 30 30 30 29 30 31 29 28 27 26 24 25
10 11 11 12 12 11 11 11 12 12 13 13 17 18 16 17 20 19 18 19 20 22 22 21 18 18 24 27 28 32 33 32 32 32 32 32 33 32 31 30 28 27 27
8 8 10 12 14 14 14 14 12 13 11 12 16 17 16 21 20 11 13 14 16 19 19 18 17 15 17 24 29 29 34 34 35 34 34 35 35 34 34 33 31 30 30
9 9 9 10 10 11 12 14 14 14 13 13 12 20 10 11 11 19 14 16 15 18 19 16 15 16 14 16 21 24 34 37 36 36 35 37 38 37 37 36 35 32 32
10 9 8 8 9 10 12 13 13 14 15 9 10 8 7 7 25 9 23 16 22 21 18 20 17 20 18 18 19 22 24 31 38 36 37 38 39 40 39 39 38 37 34
11 11 9 8 9 9 11 13 12 11 12 12 11 11 13 14 10 16 3 23 21 20 19 18 21 19 20 17 21 20 25 28 33 40 39 39 40 41 42 42 41 39 38
12 11 10 10 10 11 12 12 13 14 13 13 12 11 13 14 14 19 26 17 22 18 17 19 20 21 20 18 15 13 27 24 29 30 44 41 40 41 42 42 43 41 39
11 12 12 11 11 11 12 12 12 12 13 13 14 15 16 16 16 16 22 22 22 25 20 18 18 19 21 15 13 17 21 24 28 29 33 42 41 41 42 41 37 40 41
10 11 12 12 12 13 14 13 13 14 13 15 15 15 16 17 16 17 20 22 23 23 20 19 17 17 19 11 12 20 22 24 27 28 32 33 44 43 43 41 41 42 43
12 12 13 13 13 13 13 13 13 13 14 14 16 17 18 17 17 17 19 20 25 23 24 22 13 23 19 10 16 22 18 21 26 27 30 34 28 45 44 43 44 43 46
12 13 13 15 14 14 14 14 14 15 15 16 17 17 19 18 17 17 18 18 20 27 29 21 16 16 22 21 20 20 14 22 25 25 25 30 28 25 45 42 43 43 43
14 14 14 14 14 15 15 15 16 16 17 17 17 19 19 18 18 17 18 18 19 22 31 21 20 19 18 19 22 24 21 21 22 24 26 23 29 27 31 45 45 43 42
14 15 15 15 16 17 17 17 18 19 21 21 21 22 23 22 20 19 18 19 20 20 27 26 23 18 20 22 21 22 21 18 17 22 22 26 26 28 28 20 45 45 44
16 16 15 16 17 18 18 19 20 20 22 23 24 23 25 21 23 22 21 23 22 22 23 29 26 24 24 19 19 22 22 19 19 20 22 22 23 27 34 30 26 43 44
16 16 16 17 18 19 20 20 21 22 24 25 26 25 26 24 25 22 23 22 21 21 21 24 27 20 20 19 20 20 23 20 19 22 18 17 18 25 31 29 26 43 43
15 15 16 17 19 20 21 22 23 25 26 26 27 29 29 27 27 25 24 25 23 22 21 24 24 22 20 17 16 20 22 15 13 16 16 18 14 17 25 32 26 33 38
14 16 18 19 19 19 19 21 23 26 27 30 31 30 28 30 33 29 24 24 23 22 21 22 23 23 20 16 17 18 19 17 13 15 17 9 6 10 16 21 22 33 39
15 15 15 19 21 19 24 28 28 22 20 20 27 27 29 33 33 36 35 34 27 23 26 23 21 23 20 16 17 19 18 13 12 1 7 13 7 14 15 16 20 26 36
15 17 18 19 19 19 26 28 29 22 20 18 22 21 23 23 28 27 31 34 32 34 35 25 28 29 25 19 18 21 19 18 20 9 10 14 7 14 12 15 20 25 33
17 18 17 18 19 19 26 27 28 19 19 20 20 20 19 22 25 26 25 25 28 27 26 24 26 22 19 20 22 22 23 21 16 14 8 18 10 16 14 13 22 24 28
17 16 16 18 19 21 25 25 24 18 15 18 18 18 19 21 28 31 26 25 26 27 27 33 34 32 31 31 30 19 20 19 21 18 13 16 11 12 13 12 14 16 28
17 16 18 19 22 22 24 24 23 16 13 16 16 17 21 20 22 23 26 21 21 25 22 21 20 25 25 21 28 26 18 20 18 19 16 12 8 5 7 2 7 15 26
Wind_Direction
358 357 359 354 351 9 358 346 344 341 343 338 332 328 328 322 314 310 310 308 307 306 304 300 296 276 236 217 213 220 225 215 215 205 201 190 191 185 185 182 174 170 174
354 348 340 341 347 5 348 342 337 337 337 335 328 328 324 318 312 313 310 310 307 303 300 297 293 289 262 236 221 218 219 215 211 204 202 199 193 194 191 189 183 181 185
352 347 330 331 338 348 334 335 334 334 340 332 326 323 318 314 309 308 310 306 302 301 297 295 291 282 283 257 239 222 216 216 211 205 203 203 200 196 196 194 191 187 189
356 354 337 336 333 335 321 323 319 344 333 331 323 314 308 311 308 309 302 295 291 291 291 288 289 290 284 281 252 240 224 214 213 209 205 203 204 198 197 197 201 194 194
350 352 342 334 338 332 330 327 342 330 323 315 313 318 314 305 294 292 289 283 280 278 276 279 279 281 285 281 270 248 234 222 215 210 207 204 203 201 198 198 202 199 192
339 344 339 331 332 334 331 334 324 322 314 320 318 308 295 299 291 286 288 289 285 284 281 274 268 272 274 278 271 257 242 230 220 212 208 206 204 202 201 197 198 199 193
328 345 315 317 328 328 324 326 323 322 328 322 318 318 299 281 276 306 295 297 292 288 295 282 293 292 278 276 269 262 244 236 227 218 210 207 205 203 201 199 198 197 198
336 314 321 305 308 316 320 315 317 323 320 331 329 326 338 315 15 334 320 334 335 341 331 323 334 333 336 338 320 289 253 237 232 225 216 206 206 203 201 201 199 196 197
310 294 293 301 306 306 304 306 305 299 299 312 321 309 326 312 327 307 321 324 327 321 314 327 335 328 330 325 327 324 333 262 233 228 223 212 206 203 202 202 200 197 196
302 301 296 297 294 293 290 288 291 300 309 297 293 284 280 295 303 312 296 316 309 310 317 330 324 319 324 313 317 323 330 296 336 235 225 219 209 206 204 203 201 200 196
302 314 318 308 293 277 273 275 282 285 283 286 288 293 289 289 287 287 298 309 310 303 307 315 308 310 303 315 301 332 343 337 336 311 229 220 215 209 208 206 201 199 198
316 309 306 304 298 295 291 290 295 294 294 293 292 288 285 285 286 286 288 296 296 301 302 303 301 305 295 294 305 335 345 340 341 333 259 224 217 212 209 209 200 204 200
300 302 299 297 295 292 289 284 276 273 273 271 271 273 273 272 276 279 281 287 290 295 297 295 291 300 296 300 329 331 335 334 336 337 319 266 219 212 206 206 205 203 204
290 287 286 283 286 290 290 284 283 277 272 269 270 266 269 270 268 269 273 284 289 288 290 289 300 282 279 320 321 321 319 323 322 324 323 312 317 217 211 206 205 202 204
294 293 300 295 288 284 282 281 278 276 274 273 269 269 271 273 269 268 271 273 278 287 284 290 292 300 314 313 314 313 312 314 310 311 311 308 315 327 214 208 204 206 206
298 294 294 291 289 286 285 282 280 275 270 269 268 266 265 266 269 266 265 267 268 274 281 284 285 288 289 300 305 307 304 302 298 302 297 315 315 329 321 208 207 204 198
295 292 291 290 286 282 278 276 272 271 269 268 264 263 264 264 266 267 263 261 264 264 271 281 281 287 293 293 295 296 291 296 293 285 293 307 321 315 309 289 205 203 203
285 281 286 286 282 280 278 276 273 270 269 267 264 261 260 260 260 259 259 258 257 261 269 278 281 285 280 278 289 293 287 283 284 284 288 279 304 309 299 294 267 195 197
281 283 284 281 279 279 278 275 272 269 266 264 264 261 259 256 257 254 256 257 255 257 261 267 275 275 280 282 284 283 283 275 272 276 284 292 296 303 301 308 275 205 198
278 286 279 279 281 279 275 272 270 266 262 260 258 254 252 248 249 250 250 254 257 258 261 266 272 277 278 278 274 287 286 273 287 284 281 266 277 302 316 320 257 221 194
285 280 284 283 279 278 275 270 261 259 259 260 258 255 251 245 244 244 246 248 248 253 256 262 266 272 271 276 278 283 286 290 287 278 274 275 312 309 305 318 292 221 196
291 285 286 286 286 281 286 291 290 286 285 285 277 252 246 248 250 249 252 250 237 235 243 249 257 263 267 266 271 274 283 294 298 262 318 291 287 305 312 300 304 333 208
298 295 290 287 288 290 295 296 298 302 297 295 296 301 256 242 245 244 249 257 258 254 248 237 240 247 256 255 272 283 296 300 296 285 304 296 293 293 284 301 300 300 315
294 291 290 292 292 290 298 301 302 307 297 297 295 295 283 247 242 242 242 241 242 246 252 257 261 265 258 248 251 261 273 279 282 288 281 295 297 281 288 293 287 304 289
296 293 291 292 293 291 297 303 306 303 292 301 301 301 302 269 252 255 252 235 239 241 242 246 249 252 257 257 254 256 261 271 278 282 277 260 263 298 275 279 291 331 318
291 296 295 294 290 296 297 306 309 308 299 308 309 311 311 309 315 285 253 244 242 241 236 244 247 259 263 262 257 253 253 257 266 283 268 249 282 309 314 314 351 351 345